Location: Borbetomagus
(49.6328°N, 8.3592°E)
Time: 06:44:22
(UTC+00:00)

USA 234 - Pass Details

Date: 19 May 2025
Orbit: 1097 x 1111 km, 123.0° (Epoch: 19 June)

Event Time Altitude Azimuth Distance (km) Brightness Sun altitude
Rises 20:47:42 0° 56° (NE) 3,925 6.1 -12.4°
Reaches altitude 10° 20:50:12 10° 58° (ENE) 2,967 5.5 -12.6°
Maximum altitude 20:56:46 79° 145° (SE) 1,129 3.2 -13.2°
Drops below altitude 10° 21:03:21 10° 233° (SW) 2,966 5.5 -13.8°
Sets 21:05:50 0° 234° (SW) 3,923 6.1 -14.0°
